FENGYUN 1C DEB

Satellite information

Favourite Embed

Satellite Type and Status

DEBRISIN ORBIT

Key statistics

Satellite FENGYUN 1C DEB at a glance.

Uptime

9554

Days in orbit

Revolutions

≈ 14.2

Per day

Orbit

SSO

Sun Synchronous Orbit

Inclination

98.7

Latest

Satellite identification and parameters

Extended collection of information and parameters for FENGYUN 1C DEB.

Object identification

Identified? True

Debris? True

Object name: FENGYUN 1C DEB

International designator: 1999-025EYN

Object number (NORAD): 43214

Object ID (CCSDS): 43214

Country: PEOPLES REPUBLIC OF CHINA (PRC)

Current information (Y/N): Y

RCS size: SMALL

Orbital parameters

Period: 101.204 minutes

Inclination: 98.7448 deg

SMA: 7193.812 km

Apoapsis: 854.22 km

Periapsis: 777.134 km

RAAN: 250.8904 deg

Eccentricy: 0.0053578

Argument of periapsis: 337.2447 deg

Mean anomaly: 22.6357 deg

Mean motion: 14.22866395 rev/day

Mean motion (dot): 0.0000201 rev/day2

B* drag term: 0.00090098 1/REarth

Two-line elements (TLE)

Creation date: July 4, 2025, 6:39 p.m.

Reference frame: TEME

Reference center: EARTH

Epoch: July 4, 2025, 2:41 a.m. UTC

TLE line 0: 0 FENGYUN 1C DEB

TLE line 1: 1 43214U 99025EYN 25185.11238463 .00002010 00000-0 90098-3 0 9990

TLE line 2: 2 43214 98.7448 250.8904 0053578 337.2447 22.6357 14.22866395381049

Live tracking on map

Real-time ground track for satellite FENGYUN 1C DEB.

In-orbit conjunctions

A list of the most updated potential collisions computed for object FENGYUN 1C DEB.

Target Orbit TCA Probability of collision Miss distance Type
CZ-6A DEB LEO 2025-03-02 20:37:30 0.0004041755 275.0 (m) DEBRIS
OSCAR 17 (DOVE) SSO 2024-09-18 02:13:16 0.0003298555 335.0 (m) PAYLOAD
THOR BURNER 2 R/B SSO 2024-07-29 11:48:40 0.0001351956 233.0 (m) ROCKET BODY

Associated space launch

Chinese polar orbiting meteorological satellite

FENGYUN 1C DEB was lifted into orbit during the mission ‘Long March 4B | Feng Yun 1C’, on board a Long March 4B space rocket.

The launch took place on May 10, 1999, 1:33 a.m. from Launch Complex 7.

For more information about the launch, click the button.

Launch to space Long March 4B | Feng Yun 1C
Long March 4B | Feng Yun 1C

Agency: N/A

Status: Launch Successful

Launch date: May 10, 1999, 1:33 a.m. UTC

Rocket: Long March 4B

Launch pad: Launch Complex 7

Location: Taiyuan Satellite Launch Center, People's Republic of China

...

Latest news about this satellite

There are no fresh news available about this satellite. Check back as we update our databases every day.


Newsletter sign-up

Weekly statistics, charts and insights to help you stay on top of the space industry.